Simultaneous Nadir Overpasses (SNOs) Predictions

Prediction of SNOs between METOP-A and TERRA Satellite Orbit:

Table of predicted SNOs for the next 14.0 days since TLE Epoch: 3/23/2019
Index Date (METOP-A) Time (METOP-A) Lat,Lon (METOP-A) SZA (METOP-A ) Date (TERRA) Time (TERRA) Lat,Lon (TERRA) SZA (TERRA ) Distance(km) Time Diff (sec)
1 03/23/2019 11:30:46 81.45, 57.52 83.31 03/23/2019 11:31:21 81.46, 57.64 83.35 2.25 35
2 03/23/2019 12:21:26 -81.45,-134.97 96.69 03/23/2019 12:20:48 -81.45,-134.90 96.70 1.36 38
3 03/26/2019 07:05:00 81.45, 123.86 82.22 03/26/2019 07:05:37 81.44, 123.68 82.21 3.12 37
4 03/26/2019 07:55:40 -81.45, -68.60 97.77 03/26/2019 07:55:03 -81.45, -68.44 97.77 2.65 37
5 03/29/2019 02:39:14 81.45,-169.83 81.14 03/29/2019 02:39:51 81.45,-169.68 81.17 2.43 37
6 03/29/2019 03:29:54 -81.45, -2.24 98.85 03/29/2019 03:29:18 -81.44, -2.16 98.86 1.31 36
7 03/31/2019 22:13:26 81.45,-103.13 80.10 03/31/2019 22:14:04 81.45,-103.22 80.11 1.51 38
8 03/31/2019 23:04:06 -81.45, 64.51 99.88 03/31/2019 23:03:31 -81.45, 64.33 99.92 2.90 35
9 04/03/2019 17:47:40 81.45, -36.84 79.03 04/03/2019 17:48:18 81.44, -36.93 79.04 1.51 38




NCC Satellite Simultaneous Nadir Overpasses (SNOs) Prediction Service
